20050706,000017,617523,31.655266,-121.479870,16.599,33.132,0.207,0.172
20050706,000048,617554,31.656061,-121.478535,16.589,33.132,0.218,0.186
20050706,000117,617583,31.656780,-121.477163,16.586,33.130,0.224,0.193
20050706,000147,617613,31.657571,-121.475826,16.579,33.131,0.230,0.201
20050706,000217,617643,31.658378,-121.474468,16.576,33.129,0.236,0.205
20050706,000247,617673,31.659136,-121.473096,16.567,33.130,0.247,0.218
20050706,000317,617702,31.659930,-121.471721,16.559,33.133,0.264,0.240
20050706,000347,617732,31.660703,-121.470345,16.550,33.133,0.264,0.242
20050706,000417,617763,31.661481,-121.468998,16.546,33.131,0.275,0.253
20050706,000447,617793,31.662261,-121.467691,16.538,33.132,0.286,0.267
20050706,000518,617823,31.663020,-121.466338,16.534,33.134,0.303,0.289
20050706,000547,617853,31.663806,-121.464975,16.525,33.136,0.314,0.304
20050706,000617,617882,31.664570,-121.463621,16.519,33.135,0.325,0.320
20050706,000647,617912,31.665355,-121.462296,16.512,33.134,0.331,0.328
20050706,000717,617943,31.666120,-121.460946,16.506,33.136,0.342,0.339
20050706,000747,617973,31.666886,-121.459555,16.497,33.141,0.342,0.336
20050706,000817,618003,31.667670,-121.458236,16.493,33.137,0.348,0.342
20050706,000847,618032,31.668400,-121.456893,16.485,33.139,0.376,0.381
20050706,000917,618062,31.669143,-121.455510,16.485,33.134,0.398,0.411
20050706,000947,618093,31.669903,-121.454185,16.484,33.137,0.420,0.441
20050706,001017,618123,31.670651,-121.452865,16.480,33.139,0.442,0.474
20050706,001047,618153,31.671436,-121.451518,16.479,33.138,0.448,0.480
20050706,001117,618183,31.672210,-121.450161,16.477,33.139,0.453,0.486
20050706,001147,618212,31.672983,-121.448795,16.470,33.140,0.453,0.483
20050706,001217,618242,31.673750,-121.447421,16.462,33.144,0.459,0.488
20050706,001247,618273,31.674541,-121.446078,16.454,33.146,0.469,0.503
20050706,001317,618303,31.675325,-121.444696,16.448,33.145,0.469,0.501
20050706,001347,618333,31.676101,-121.443371,16.438,33.148,0.475,0.510
20050706,001417,618363,31.676881,-121.442036,16.429,33.147,0.497,0.545
20050706,001447,618392,31.677678,-121.440668,16.418,33.149,0.525,0.590
20050706,001517,618422,31.678430,-121.439315,16.406,33.146,0.519,0.586
20050706,001547,618453,31.679203,-121.438001,16.398,33.142,0.525,0.599
20050706,001617,618483,31.679973,-121.436758,16.395,33.139,0.525,0.602
20050706,001647,618513,31.680781,-121.435368,16.393,33.139,0.530,0.609
20050706,001717,618542,31.681566,-121.434011,16.394,33.136,0.536,0.617
20050706,001747,618572,31.682353,-121.432671,16.392,33.134,0.530,0.609
20050706,001817,618603,31.683136,-121.431335,16.390,33.136,0.514,0.582
20050706,001847,618633,31.683913,-121.430005,16.385,33.137,0.508,0.574
20050706,001917,618663,31.684675,-121.428665,16.383,33.137,0.508,0.572
20050706,001947,618693,31.685458,-121.427373,16.377,33.139,0.508,0.571
20050706,002017,618722,31.686238,-121.426040,16.370,33.141,0.514,0.579
20050706,002047,618752,31.687045,-121.424730,16.365,33.140,0.530,0.605
20050706,002117,618783,31.687830,-121.423403,16.354,33.142,0.508,0.568
20050706,002148,618813,31.688590,-121.422061,16.347,33.144,0.525,0.592
20050706,002217,618843,31.689385,-121.420720,16.336,33.141,0.519,0.581
20050706,002247,618873,31.690240,-121.419490,16.330,33.139,0.536,0.606
20050706,002318,618904,31.691098,-121.418266,16.325,33.138,0.547,0.624
20050706,002347,618933,31.691973,-121.416990,16.321,33.139,0.547,0.628
20050706,002417,618963,31.692823,-121.415750,16.317,33.140,0.552,0.637
20050706,002447,618993,31.693646,-121.414540,16.313,33.143,0.563,0.654
20050706,002517,619023,31.694460,-121.413307,16.311,33.136,0.552,0.636
20050706,002547,619052,31.695270,-121.412167,16.313,33.137,0.558,0.639
20050706,002617,619082,31.696076,-121.410968,16.312,33.137,0.563,0.647
20050706,002647,619113,31.696903,-121.409753,16.313,33.139,0.552,0.626
20050706,002717,619143,31.697760,-121.408535,16.314,33.140,0.558,0.631
20050706,002747,619173,31.698620,-121.407287,16.313,33.139,0.563,0.638
20050706,002817,619203,31.699460,-121.406053,16.311,33.139,0.569,0.648
20050706,002847,619232,31.700306,-121.404838,16.306,33.145,0.585,0.676
20050706,002917,619262,31.701156,-121.403573,16.305,33.144,0.574,0.660
20050706,002947,619293,31.702040,-121.402360,16.305,33.142,0.580,0.670
20050706,003017,619323,31.702895,-121.401125,16.306,33.143,0.596,0.697
20050706,003047,619353,31.703763,-121.399897,16.299,33.149,0.591,0.688
20050706,003117,619382,31.704611,-121.398668,16.295,33.148,0.574,0.661
20050706,003147,619412,31.705451,-121.397468,16.291,33.144,0.574,0.660
20050706,003217,619443,31.706270,-121.396238,16.291,33.140,0.580,0.667
20050706,003247,619473,31.707141,-121.395057,16.290,33.139,0.585,0.675
20050706,003317,619503,31.707981,-121.393778,16.286,33.142,0.580,0.665
20050706,003347,619533,31.708835,-121.392568,16.284,33.137,0.580,0.664
20050706,003417,619562,31.709676,-121.391330,16.283,33.139,0.585,0.675
20050706,003447,619592,31.710526,-121.390088,16.282,33.137,0.596,0.693
20050706,003517,619623,31.711391,-121.388843,16.280,33.138,0.574,0.659
20050706,003547,619653,31.712255,-121.387652,16.277,33.138,0.580,0.669
20050706,003617,619683,31.713100,-121.386442,16.272,33.137,0.580,0.667
20050706,003647,619713,31.713931,-121.385218,16.268,33.134,0.580,0.663
20050706,003717,619742,31.714780,-121.383955,16.265,33.132,0.574,0.654
20050706,003747,619772,31.715635,-121.382728,16.260,33.134,0.574,0.654
20050706,003817,619803,31.716496,-121.381478,16.257,33.131,0.574,0.653
20050706,003847,619833,31.717335,-121.380215,16.251,33.131,0.585,0.672
20050706,003917,619863,31.718171,-121.378968,16.247,33.138,0.574,0.656
20050706,003947,619892,31.719005,-121.377720,16.245,33.130,0.585,0.678
20050706,004017,619922,31.719835,-121.376495,16.244,33.128,0.574,0.664
20050706,004047,619953,31.720676,-121.375265,16.237,33.130,0.574,0.661
20050706,004117,619983,31.721521,-121.374017,16.233,33.131,0.574,0.660
20050706,004147,620013,31.722380,-121.372750,16.229,33.128,0.580,0.667
20050706,004218,620044,31.723255,-121.371510,16.224,33.132,0.563,0.636
20050706,004247,620072,31.724065,-121.370243,16.220,33.133,0.580,0.661
20050706,004317,620102,31.724895,-121.368985,16.213,33.127,0.563,0.635
20050706,004347,620133,31.725771,-121.367788,16.205,33.124,0.569,0.643
20050706,004417,620163,31.726601,-121.366528,16.196,33.124,0.569,0.639
20050706,004447,620193,31.727453,-121.365272,16.189,33.124,0.574,0.643
20050706,004517,620223,31.728333,-121.364023,16.185,33.121,0.580,0.649
20050706,004547,620252,31.729165,-121.362792,16.183,33.117,0.569,0.631
20050706,004617,620283,31.730053,-121.361548,16.182,33.115,0.580,0.646
20050706,004647,620313,31.730935,-121.360300,16.180,33.117,0.596,0.670
20050706,004717,620343,31.731790,-121.359032,16.175,33.120,0.591,0.661
20050706,004747,620373,31.732621,-121.357768,16.172,33.117,0.613,0.691
20050706,004817,620402,31.733446,-121.356493,16.168,33.119,0.613,0.687
20050706,004847,620432,31.734155,-121.355132,16.165,33.124,0.607,0.677
20050706,004917,620463,31.734778,-121.353692,16.160,33.120,0.613,0.683
20050706,004948,620493,31.735406,-121.352238,16.155,33.120,0.613,0.682
20050706,005017,620523,31.736043,-121.350772,16.151,33.118,0.624,0.699
20050706,005047,620553,31.736733,-121.349357,16.148,33.119,0.624,0.698
20050706,005118,620584,31.737353,-121.347903,16.146,33.118,0.618,0.688
20050706,005147,620612,31.737986,-121.346440,16.139,33.118,0.618,0.687
20050706,005217,620643,31.738566,-121.344935,16.132,33.121,0.629,0.705
20050706,005247,620673,31.739153,-121.343442,16.128,33.117,0.624,0.699
20050706,005318,620704,31.739778,-121.341898,16.123,33.116,0.624,0.703
20050706,005348,620734,31.740335,-121.340445,16.115,33.117,0.629,0.715
20050706,005417,620762,31.740930,-121.338978,16.107,33.117,0.624,0.705
20050706,005448,620794,31.741508,-121.337407,16.097,33.116,0.624,0.703
20050706,005518,620823,31.742096,-121.335960,16.092,33.114,0.613,0.685
20050706,005547,620853,31.742691,-121.334465,16.084,33.112,0.607,0.675
20050706,005617,620883,31.743365,-121.333022,16.080,33.114,0.618,0.692
20050706,005648,620914,31.744123,-121.331568,16.070,33.114,0.613,0.683
20050706,005717,620942,31.744826,-121.330197,16.066,33.115,0.624,0.699
20050706,005748,620974,31.745573,-121.328720,16.056,33.117,0.607,0.670
20050706,005818,621003,31.746295,-121.327287,16.051,33.123,0.624,0.694
20050706,005847,621033,31.747008,-121.325943,16.041,33.120,0.635,0.710
20050706,005917,621063,31.747710,-121.324530,16.033,33.120,0.624,0.691
20050706,005948,621094,31.748445,-121.323048,16.023,33.121,0.635,0.707
20050706,010018,621124,31.749158,-121.321593,16.015,33.122,0.635,0.705
20050706,010048,621153,31.749888,-121.320188,16.003,32.086,0.656,0.737
20050706,010118,621183,31.750441,-121.318677,15.999,33.122,0.667,0.755
20050706,010147,621213,31.750793,-121.317463,15.987,33.129,0.673,0.764
20050706,010218,621244,31.751028,-121.316892,15.970,33.133,0.678,0.774
20050706,010248,621274,31.751163,-121.316722,15.968,33.129,0.684,0.785
20050706,010317,621303,31.751241,-121.316678,15.982,33.115,0.684,0.786
20050706,010348,621333,31.751316,-121.316703,15.992,33.001,0.684,0.785
20050706,010418,621363,31.751366,-121.316732,15.983,32.936,0.689,0.793
20050706,010448,621394,31.751433,-121.316757,15.967,32.970,0.689,0.793
20050706,010519,621424,31.751480,-121.316780,15.945,33.079,0.695,0.804
20050706,010548,621454,31.751483,-121.316777,15.941,33.097,0.711,0.832
20050706,010618,621483,31.751468,-121.316772,15.940,33.111,0.700,0.815
20050706,010648,621513,31.751461,-121.316708,15.944,33.114,0.695,0.806
20050706,010719,621545,31.751498,-121.316682,15.944,33.121,0.689,0.797
20050706,010748,621574,31.751526,-121.316707,15.941,33.123,0.689,0.796
20050706,010818,621604,31.751478,-121.316747,15.939,33.128,0.700,0.812
20050706,010848,621634,31.751396,-121.316802,15.937,33.128,0.706,0.818
20050706,010918,621663,31.751276,-121.316958,15.933,33.130,0.711,0.825
20050706,010949,621695,31.751231,-121.317193,15.930,33.130,0.695,0.797
20050706,011018,621724,31.751201,-121.317283,15.932,33.126,0.717,0.830
20050706,011048,621754,31.751158,-121.317267,15.934,33.124,0.717,0.829
20050706,011118,621784,31.751075,-121.317230,15.932,33.129,0.700,0.801
20050706,011149,621815,31.751046,-121.317140,15.932,33.127,0.695,0.791
20050706,011218,621843,31.751046,-121.317033,15.936,33.124,0.695,0.790
20050706,011248,621873,31.751025,-121.316958,15.935,33.124,0.700,0.798
20050706,011319,621904,31.751013,-121.316893,15.933,33.128,0.711,0.814
20050706,011348,621934,31.750970,-121.316850,15.929,33.132,0.711,0.813
20050706,011418,621964,31.750895,-121.316847,15.928,33.129,0.722,0.831
20050706,011449,621995,31.750835,-121.316918,15.934,33.123,0.706,0.805
20050706,011518,622023,31.750801,-121.316967,15.936,33.125,0.717,0.824
20050706,011548,622054,31.750771,-121.316995,15.936,33.126,0.711,0.816
20050706,011618,622084,31.750776,-121.317035,15.936,33.126,0.728,0.843
20050706,011648,622114,31.750806,-121.317082,15.937,33.127,0.711,0.817
20050706,011719,622145,31.750851,-121.317167,15.938,33.125,0.700,0.802
20050706,011748,622173,31.750876,-121.317215,15.938,33.126,0.706,0.814
20050706,011818,622203,31.750861,-121.317308,15.940,33.124,0.700,0.802
20050706,011849,622235,31.750906,-121.317382,15.938,33.124,0.717,0.825
20050706,011918,622264,31.750940,-121.317433,15.936,33.127,0.717,0.823
20050706,011948,622294,31.750955,-121.317433,15.937,33.128,0.706,0.804
20050706,012018,622324,31.750996,-121.317453,15.936,33.124,0.717,0.821
20050706,012048,622353,31.751015,-121.317485,15.938,33.125,0.706,0.802
20050706,012118,622383,31.751021,-121.317522,15.937,33.123,0.695,0.784
20050706,012148,622414,31.751041,-121.317522,15.936,33.124,0.706,0.801
20050706,012218,622444,31.751035,-121.317547,15.936,33.124,0.711,0.810
20050706,012248,622474,31.751051,-121.317533,15.936,33.124,0.717,0.820
20050706,012318,622503,31.751078,-121.317532,15.934,33.124,0.700,0.794
20050706,012349,622535,31.751090,-121.317517,15.934,33.124,0.722,0.830
20050706,012418,622564,31.751088,-121.317515,15.934,33.124,0.706,0.804
20050706,012448,622594,31.751111,-121.317503,15.935,33.122,0.717,0.822
20050706,012518,622624,31.751128,-121.317508,15.937,33.123,0.689,0.778
20050706,012548,622654,31.751138,-121.317532,15.936,33.124,0.733,0.848
20050706,012618,622683,31.751140,-121.317560,15.934,33.124,0.706,0.803
20050706,012648,622713,31.751116,-121.317587,15.934,33.124,0.700,0.795
20050706,012718,622744,31.751106,-121.317658,15.939,33.120,0.749,0.875
20050706,012748,622774,31.751061,-121.317717,15.943,33.093,0.738,0.858
20050706,012818,622804,31.751005,-121.317823,15.938,33.103,0.717,0.824
20050706,012848,622833,31.750966,-121.317917,15.938,33.114,0.722,0.831
20050706,012918,622863,31.750926,-121.317968,15.939,33.119,0.728,0.839
20050706,012948,622894,31.750926,-121.317990,15.939,33.109,0.722,0.830
20050706,013018,622924,31.750943,-121.317972,15.938,33.114,0.700,0.794
20050706,013048,622954,31.750931,-121.317968,15.938,33.119,0.717,0.819
20050706,013119,622985,31.750886,-121.318000,15.936,33.121,0.706,0.800
20050706,013148,623013,31.750805,-121.318057,15.938,33.122,0.700,0.791
20050706,013218,623043,31.750735,-121.318150,15.938,33.121,0.711,0.808
20050706,013248,623074,31.750631,-121.318292,15.936,33.120,0.733,0.842
20050706,013318,623104,31.750558,-121.318450,15.937,33.121,0.700,0.789
20050706,013349,623134,31.750501,-121.318558,15.937,33.121,0.711,0.806
20050706,013418,623164,31.750433,-121.318673,15.941,33.120,0.722,0.823
20050706,013448,623193,31.750436,-121.318773,15.941,33.118,0.706,0.797
20050706,013518,623223,31.750488,-121.318853,15.940,33.117,0.728,0.832
20050706,013548,623254,31.750585,-121.318888,15.940,33.118,0.722,0.822
20050706,013618,623284,31.750678,-121.318937,15.939,33.119,0.717,0.812
20050706,013648,623314,31.750788,-121.319022,15.936,33.123,0.706,0.793
20050706,013718,623343,31.750861,-121.319087,15.939,33.120,0.711,0.800
20050706,013749,623375,31.750933,-121.319132,15.941,33.119,0.711,0.799
20050706,013818,623404,31.750963,-121.319128,15.943,33.117,0.711,0.798
20050706,013848,623434,31.750970,-121.319073,15.941,33.119,0.711,0.797
20050706,013918,623464,31.750945,-121.319015,15.941,33.121,0.717,0.805
20050706,013948,623494,31.750901,-121.318960,15.943,33.118,0.717,0.805
20050706,014018,623523,31.750835,-121.318923,15.944,33.117,0.717,0.807
20050706,014048,623553,31.750781,-121.318867,15.941,33.120,0.717,0.808
20050706,014119,623585,31.750705,-121.318837,15.939,33.118,0.722,0.817
20050706,014148,623614,31.750628,-121.318782,15.937,33.122,0.711,0.799
20050706,014219,623645,31.750530,-121.318740,15.934,33.122,0.711,0.798
20050706,014248,623674,31.750420,-121.318720,15.934,33.120,0.711,0.797
20050706,014318,623703,31.750321,-121.318728,15.933,33.121,0.722,0.814
20050706,014349,623735,31.750275,-121.318785,15.931,33.121,0.733,0.831
20050706,014418,623764,31.750301,-121.318855,15.935,33.126,0.722,0.814
20050706,014448,623794,31.750358,-121.318897,15.934,33.119,0.711,0.797
20050706,014518,623824,31.750480,-121.318888,15.934,33.118,0.733,0.831
20050706,014548,623853,31.750613,-121.318852,15.935,33.118,0.717,0.804
20050706,014618,623883,31.750773,-121.318835,15.939,33.116,0.711,0.795
20050706,014648,623914,31.750920,-121.318857,15.938,33.120,0.733,0.830
20050706,014718,623944,31.751046,-121.318937,15.939,33.125,0.717,0.804
20050706,014749,623974,31.751201,-121.319020,15.938,33.121,0.722,0.812
20050706,014818,624004,31.751263,-121.319103,15.935,33.122,0.711,0.796
20050706,014848,624033,31.751301,-121.319188,15.936,33.119,0.722,0.815
20050706,014918,624063,31.751258,-121.319292,15.940,33.119,0.717,0.807
20050706,014948,624094,31.751155,-121.319315,15.943,33.117,0.728,0.827
20050706,015018,624124,31.751021,-121.319357,15.948,33.120,0.733,0.836
20050706,015048,624154,31.750868,-121.319442,15.950,33.114,0.722,0.817
20050706,015119,624185,31.750730,-121.319585,15.946,33.119,0.706,0.788
20050706,015148,624213,31.750628,-121.319768,15.945,33.118,0.728,0.821
20050706,015218,624244,31.750603,-121.319935,15.942,33.120,0.717,0.803
20050706,015248,624274,31.750600,-121.320052,15.942,33.120,0.722,0.813
20050706,015318,624304,31.750610,-121.320083,15.942,33.118,0.722,0.812
20050706,015348,624334,31.750608,-121.320070,15.942,33.118,0.711,0.793
20050706,015418,624363,31.750603,-121.320045,15.943,33.118,0.717,0.800
20050706,015449,624395,31.750630,-121.320027,15.948,33.114,0.700,0.773
20050706,015518,624424,31.750618,-121.320088,15.951,33.116,0.706,0.780
20050706,015548,624454,31.750563,-121.320193,15.949,33.119,0.706,0.779
20050706,015619,624484,31.750485,-121.320302,15.950,33.122,0.722,0.804
20050706,015648,624514,31.750425,-121.320443,15.950,33.117,0.717,0.794
20050706,015718,624543,31.750400,-121.320583,15.954,33.113,0.722,0.803
20050706,015749,624575,31.750436,-121.320688,15.956,33.108,0.728,0.811
20050706,015819,624604,31.750510,-121.320750,15.952,33.117,0.717,0.793
20050706,015848,624634,31.750601,-121.320782,15.950,33.115,0.706,0.776
20050706,015918,624664,31.750676,-121.320848,15.945,33.115,0.728,0.810
20050706,015948,624693,31.750698,-121.320885,15.948,33.112,0.711,0.784
20050706,020018,624723,31.750700,-121.320935,15.949,33.111,0.706,0.776
20050706,020048,624754,31.750708,-121.320932,15.962,33.109,0.738,0.827
20050706,020118,624784,31.750721,-121.320910,15.964,33.113,0.711,0.784
20050706,020148,624814,31.750726,-121.320877,15.968,33.111,0.717,0.793
20050706,020218,624844,31.750715,-121.320848,15.966,33.116,0.695,0.760
20050706,020248,624873,31.750676,-121.320827,15.966,33.118,0.711,0.784
20050706,020318,624903,31.750555,-121.320902,15.967,33.116,0.717,0.791
20050706,020348,624934,31.750453,-121.321013,15.969,33.114,0.695,0.756
20050706,020419,624964,31.750325,-121.321213,15.969,33.116,0.728,0.807
20050706,020448,624994,31.750270,-121.321400,15.965,33.117,0.711,0.781
20050706,020518,625024,31.750241,-121.321553,15.966,33.114,0.706,0.774
20050706,020548,625053,31.750300,-121.321605,15.967,33.115,0.722,0.799
20050706,020618,625083,31.750336,-121.321518,15.964,33.118,0.711,0.782
20050706,020649,625114,31.750391,-121.321357,15.965,33.117,0.717,0.790
20050706,020718,625144,31.750448,-121.321280,15.964,33.118,0.700,0.764
20050706,020748,625174,31.750505,-121.321308,15.964,33.119,0.717,0.789
20050706,020818,625203,31.750593,-121.321340,15.964,33.118,0.706,0.772
20050706,020848,625233,31.750688,-121.321455,15.964,33.115,0.722,0.797
20050706,020918,625264,31.750826,-121.321543,15.964,33.115,0.722,0.796
20050706,020949,625294,31.750950,-121.321640,15.963,33.116,0.717,0.787
20050706,021018,625324,31.751083,-121.321763,15.962,33.117,0.733,0.813
20050706,021048,625354,31.751220,-121.321932,15.962,33.118,0.722,0.797
20050706,021118,625383,31.751385,-121.322025,15.963,33.115,0.700,0.763
20050706,021148,625413,31.751546,-121.322090,15.964,33.117,0.717,0.788
20050706,021218,625444,31.751651,-121.322117,15.965,33.116,0.722,0.795
20050706,021249,625474,31.751691,-121.322178,15.968,33.114,0.711,0.776
20050706,021318,625504,31.751690,-121.322233,15.970,33.114,0.711,0.776
20050706,021349,625535,31.751676,-121.322337,15.972,33.116,0.722,0.792
20050706,021418,625563,31.751666,-121.322383,15.973,33.116,0.717,0.783
20050706,021449,625595,31.751668,-121.322478,15.970,33.117,0.717,0.782
20050706,021519,625624,31.751650,-121.322577,15.970,33.116,0.717,0.782
20050706,021548,625654,31.751671,-121.322650,15.969,33.117,0.711,0.773
20050706,021618,625684,31.751666,-121.322665,15.968,33.116,0.711,0.772
20050706,021649,625715,31.751655,-121.322680,15.968,33.116,0.717,0.780
20050706,021718,625743,31.751610,-121.322762,15.970,33.114,0.711,0.771
20050706,021749,625775,31.751598,-121.322828,15.970,33.114,0.717,0.779
20050706,021819,625804,31.751576,-121.322868,15.969,33.115,0.706,0.762
20050706,021849,625834,31.751530,-121.322923,15.968,33.114,0.700,0.753
20050706,021918,625864,31.751500,-121.323002,15.966,33.118,0.711,0.769
20050706,021949,625895,31.751461,-121.323062,15.966,33.116,0.706,0.761
20050706,022019,625925,31.751471,-121.323132,15.966,33.113,0.695,0.743
20050706,022049,625954,31.751468,-121.323203,15.970,33.111,0.717,0.777
20050706,022119,625984,31.751383,-121.323243,15.971,33.115,0.706,0.759
20050706,022149,626015,31.751286,-121.323320,15.973,33.113,0.700,0.751
20050706,022219,626045,31.751235,-121.323412,15.973,33.113,0.728,0.792
20050706,022249,626075,31.751250,-121.323480,15.973,33.115,0.695,0.743
20050706,022319,626105,31.751280,-121.323545,15.973,33.113,0.695,0.743
20050706,022349,626134,31.751326,-121.323588,15.973,33.116,0.711,0.768
20050706,022419,626164,31.751326,-121.323627,15.973,33.115,0.711,0.768
20050706,022449,626195,31.751278,-121.323687,15.969,33.116,0.706,0.759
20050706,022519,626225,31.751230,-121.323773,15.970,33.114,0.717,0.776
20050706,022549,626255,31.751261,-121.323857,15.971,33.114,0.706,0.759
20050706,022619,626285,31.751285,-121.323913,15.973,33.113,0.706,0.759
20050706,022649,626314,31.751333,-121.323957,15.974,33.112,0.717,0.775
20050706,022719,626345,31.751346,-121.324042,15.977,33.110,0.717,0.775
20050706,022749,626375,31.751385,-121.324092,15.980,33.116,0.706,0.758
20050706,022819,626405,31.751468,-121.324237,15.980,33.111,0.711,0.766
20050706,022850,626436,31.751603,-121.324395,15.977,33.113,0.722,0.783
20050706,022919,626464,31.751751,-121.324547,15.975,33.114,0.722,0.783
20050706,022949,626494,31.751880,-121.324707,15.971,33.115,0.706,0.758
20050706,023019,626525,31.752065,-121.324877,15.973,33.110,0.706,0.758
20050706,023049,626555,31.752228,-121.325067,15.973,33.110,0.711,0.766
20050706,023119,626585,31.752371,-121.325215,15.974,33.112,0.711,0.765
20050706,023149,626615,31.752501,-121.325323,15.975,33.113,0.700,0.749
20050706,023219,626644,31.752586,-121.325362,15.976,33.110,0.711,0.765
20050706,023249,626674,31.752621,-121.325370,15.980,33.107,0.717,0.774
20050706,023319,626705,31.752625,-121.325418,15.984,33.107,0.695,0.741
20050706,023349,626735,31.752555,-121.325480,15.984,33.109,0.706,0.757
20050706,023419,626765,31.752481,-121.325628,15.985,33.111,0.695,0.740
20050706,023449,626794,31.752471,-121.325885,15.986,33.107,0.700,0.747
20050706,023519,626824,31.752483,-121.325987,15.983,33.113,0.689,0.731
20050706,023549,626855,31.752530,-121.326077,15.984,33.112,0.706,0.755
20050706,023619,626885,31.752565,-121.326108,15.984,33.109,0.695,0.738
20050706,023649,626915,31.752630,-121.326172,15.984,33.109,0.706,0.754
20050706,023719,626945,31.752673,-121.326207,15.987,33.109,0.695,0.737
20050706,023749,626974,31.752745,-121.326275,15.990,33.107,0.706,0.753
20050706,023820,627006,31.752828,-121.326343,15.994,33.106,0.700,0.744
20050706,023849,627035,31.752916,-121.326407,15.994,33.109,0.700,0.744
20050706,023920,627065,31.752993,-121.326450,15.994,33.109,0.700,0.744
20050706,023950,627096,31.753055,-121.326507,15.996,33.109,0.695,0.736
20050706,024019,627125,31.753118,-121.326565,15.998,33.108,0.689,0.729
20050706,024049,627154,31.753188,-121.326600,15.996,33.110,0.711,0.761
20050706,024119,627184,31.753250,-121.326628,15.996,33.111,0.700,0.745
20050706,024150,627215,31.753300,-121.326657,15.997,33.110,0.700,0.745
20050706,024219,627245,31.753358,-121.326703,15.997,33.111,0.706,0.753
20050706,024249,627275,31.753390,-121.326760,15.996,33.110,0.700,0.745
20050706,024320,627306,31.753430,-121.326850,15.996,33.109,0.695,0.736
20050706,024350,627336,31.753476,-121.326935,15.999,33.107,0.706,0.752
20050706,024419,627365,31.753533,-121.327012,15.999,33.109,0.700,0.744
20050706,024450,627395,31.753580,-121.327058,15.999,33.109,0.717,0.768
20050706,024520,627425,31.753645,-121.327090,15.999,33.110,0.695,0.734
20050706,024550,627456,31.753703,-121.327130,15.999,33.109,0.695,0.734
20050706,024620,627486,31.753753,-121.327165,15.999,33.109,0.695,0.734